EZY48NM EGKK-LEIB

Flight info

Callsign EZY48NM
Flight time 2h 9m
Altitude 35000
Route SFD Y47 DRAKE L151 SITET UN859 SOPIL DCT BALAN DCT EVPOK DCT NARAK DCT GAI DCT LOMRA DCT ROCAN/N0413F310 DCT PUMAL DCT XEPLA DCT BCN DCT CORDA
Aircraft A21N/M-SDE2E3FGHIRWXY/LB1

Departure

Time 2026-05-08 05:09
Airport London Gatwick Airport (EGKK)

Arrival

Time 2026-05-08 07:18
Airport Ibiza Airport (LEIB)
Time Latitude Longitude Altitude Speed Heading
2026-05-08 04:40 51.15998 -0.17068 213 ft 0 kts 322°
2026-05-08 04:54 51.15993 -0.17062 218 ft 4 kts 321°
2026-05-08 04:54 51.15974 -0.17034 213 ft 4 kts 310°
2026-05-08 04:55 51.15959 -0.16999 216 ft 4 kts 286°
2026-05-08 04:55 51.15960 -0.16964 218 ft 3 kts 234°
2026-05-08 04:55 51.15961 -0.16960 218 ft 4 kts 231°
2026-05-08 04:58 51.15960 -0.16963 218 ft 1 kts 231°
2026-05-08 04:58 51.15948 -0.16987 218 ft 4 kts 231°
2026-05-08 04:58 51.15918 -0.17032 215 ft 8 kts 217°
2026-05-08 04:58 51.15862 -0.17073 210 ft 10 kts 192°
2026-05-08 04:59 51.15809 -0.17132 215 ft 11 kts 263°
2026-05-08 04:59 51.15795 -0.17254 210 ft 12 kts 258°
2026-05-08 04:59 51.15778 -0.17389 214 ft 13 kts 257°
2026-05-08 04:59 51.15730 -0.17501 215 ft 14 kts 183°
2026-05-08 05:00 51.15633 -0.17472 215 ft 15 kts 168°
2026-05-08 05:00 51.15529 -0.17436 213 ft 16 kts 165°
2026-05-08 05:00 51.15422 -0.17396 213 ft 16 kts 168°
2026-05-08 05:00 51.15310 -0.17384 218 ft 17 kts 226°
2026-05-08 05:01 51.15287 -0.17538 214 ft 7 kts 257°
2026-05-08 05:01 51.15276 -0.17616 214 ft 8 kts 258°
2026-05-08 05:01 51.15261 -0.17725 214 ft 12 kts 259°
2026-05-08 05:01 51.15242 -0.17875 215 ft 15 kts 258°
2026-05-08 05:02 51.15216 -0.18045 212 ft 16 kts 257°
2026-05-08 05:02 51.15193 -0.18225 213 ft 17 kts 259°
2026-05-08 05:02 51.15173 -0.18414 214 ft 18 kts 254°
2026-05-08 05:02 51.15146 -0.18610 211 ft 18 kts 258°
2026-05-08 05:03 51.15120 -0.18814 210 ft 19 kts 258°
2026-05-08 05:03 51.15089 -0.19023 211 ft 20 kts 257°
2026-05-08 05:03 51.15061 -0.19243 211 ft 21 kts 258°
2026-05-08 05:03 51.15029 -0.19469 217 ft 21 kts 256°
2026-05-08 05:04 51.14997 -0.19702 216 ft 22 kts 258°
2026-05-08 05:04 51.14963 -0.19943 213 ft 23 kts 257°
2026-05-08 05:04 51.14929 -0.20191 216 ft 23 kts 258°
2026-05-08 05:04 51.14893 -0.20452 215 ft 25 kts 257°
2026-05-08 05:05 51.14856 -0.20721 220 ft 22 kts 258°
2026-05-08 05:05 51.14823 -0.20963 215 ft 19 kts 257°
2026-05-08 05:05 51.14801 -0.21116 214 ft 12 kts 256°
2026-05-08 05:05 51.14777 -0.21231 212 ft 11 kts 259°
2026-05-08 05:06 51.14760 -0.21363 211 ft 12 kts 252°
2026-05-08 05:06 51.14689 -0.21395 214 ft 11 kts 161°
2026-05-08 05:06 51.14644 -0.21339 211 ft 0 kts 148°
2026-05-08 05:07 51.14641 -0.21336 211 ft 4 kts 149°
2026-05-08 05:07 51.14592 -0.21315 216 ft 9 kts 168°
2026-05-08 05:07 51.14535 -0.21265 211 ft 11 kts 131°
2026-05-08 05:08 51.14521 -0.21156 211 ft 6 kts 76°
2026-05-08 05:08 51.14524 -0.21135 211 ft 0 kts 78°
2026-05-08 05:08 51.14525 -0.21130 220 ft 5 kts 78°
2026-05-08 05:09 51.14584 -0.20670 220 ft 82 kts 78°
2026-05-08 05:09 51.14754 -0.19454 216 ft 149 kts 77°
2026-05-08 05:09 51.15018 -0.17574 631 ft 169 kts 77°
2026-05-08 05:09 51.15264 -0.15748 1454 ft 174 kts 80°
2026-05-08 05:10 51.15513 -0.13798 2079 ft 189 kts 81°
2026-05-08 05:10 51.16029 -0.09623 3250 ft 221 kts 90°
2026-05-08 05:10 51.15703 -0.07216 3968 ft 227 kts 120°
2026-05-08 05:11 51.14624 -0.05326 4607 ft 243 kts 150°
2026-05-08 05:11 51.12981 -0.04439 5213 ft 258 kts 169°
2026-05-08 05:11 51.11193 -0.03929 5746 ft 263 kts 170°
2026-05-08 05:11 51.09391 -0.03386 5962 ft 264 kts 167°
2026-05-08 05:12 51.07624 -0.02632 6081 ft 264 kts 164°
2026-05-08 05:12 51.06285 -0.02019 6171 ft 265 kts 164°
2026-05-08 05:12 51.04516 -0.01197 6208 ft 265 kts 164°
2026-05-08 05:12 51.02738 -0.00366 6384 ft 267 kts 164°
2026-05-08 05:13 51.00949 0.00472 6200 ft 268 kts 163°
2026-05-08 05:13 50.99165 0.01317 5979 ft 267 kts 163°
2026-05-08 05:13 50.97390 0.02157 5940 ft 267 kts 163°
2026-05-08 05:13 50.95610 0.03000 5954 ft 267 kts 163°
2026-05-08 05:14 50.93830 0.03839 5961 ft 267 kts 163°
2026-05-08 05:14 50.92050 0.04680 5973 ft 267 kts 163°
2026-05-08 05:14 50.90296 0.05507 5988 ft 267 kts 164°
2026-05-08 05:14 50.88519 0.06341 6015 ft 267 kts 164°
2026-05-08 05:15 50.86715 0.07190 6046 ft 267 kts 164°
2026-05-08 05:15 50.84962 0.08016 6060 ft 267 kts 164°
2026-05-08 05:15 50.83178 0.08850 6069 ft 268 kts 164°
2026-05-08 05:15 50.81371 0.09694 6071 ft 267 kts 164°
2026-05-08 05:16 50.79609 0.10517 6071 ft 267 kts 164°
2026-05-08 05:16 50.77831 0.11348 6071 ft 267 kts 164°
2026-05-08 05:16 50.76018 0.11967 6064 ft 266 kts 178°
2026-05-08 05:16 50.74193 0.11608 6549 ft 268 kts 193°
2026-05-08 05:17 50.72372 0.10926 7421 ft 271 kts 194°
2026-05-08 05:17 50.70532 0.10225 8355 ft 273 kts 195°
2026-05-08 05:17 50.68666 0.09524 9308 ft 276 kts 195°
2026-05-08 05:17 50.66824 0.08844 10204 ft 280 kts 195°
2026-05-08 05:18 50.64871 0.08127 10778 ft 297 kts 195°
2026-05-08 05:18 50.62795 0.07372 11238 ft 314 kts 194°
2026-05-08 05:18 50.60638 0.06595 11994 ft 321 kts 194°
2026-05-08 05:18 50.58450 0.05807 12856 ft 324 kts 194°
2026-05-08 05:19 50.56243 0.05010 13734 ft 327 kts 194°
2026-05-08 05:19 50.54011 0.04204 14507 ft 330 kts 194°
2026-05-08 05:19 50.51764 0.03394 15259 ft 334 kts 194°
2026-05-08 05:19 50.49488 0.02575 16015 ft 337 kts 194°
2026-05-08 05:20 50.47189 0.01752 16749 ft 340 kts 193°
2026-05-08 05:20 50.44867 0.00918 17479 ft 344 kts 193°
2026-05-08 05:20 50.42524 0.00080 18198 ft 347 kts 193°
2026-05-08 05:20 50.40156 -0.00766 18822 ft 351 kts 193°
2026-05-08 05:21 50.37762 -0.01627 19431 ft 355 kts 193°
2026-05-08 05:21 50.35343 -0.02493 20038 ft 358 kts 193°
2026-05-08 05:21 50.32902 -0.03367 20624 ft 361 kts 193°
2026-05-08 05:21 50.30448 -0.04247 21199 ft 364 kts 193°
2026-05-08 05:22 50.27965 -0.05132 21765 ft 367 kts 193°
2026-05-08 05:22 50.25469 -0.06015 22306 ft 370 kts 193°
2026-05-08 05:22 50.22926 -0.06717 22838 ft 374 kts 186°
2026-05-08 05:22 50.20313 -0.06625 23344 ft 379 kts 173°
2026-05-08 05:23 50.17756 -0.05552 23805 ft 384 kts 160°
2026-05-08 05:23 50.15296 -0.03861 24241 ft 388 kts 157°
2026-05-08 05:23 50.12844 -0.02089 24688 ft 390 kts 158°
2026-05-08 05:23 50.10364 -0.00374 25109 ft 391 kts 161°
2026-05-08 05:24 50.07768 0.00889 25524 ft 391 kts 167°
2026-05-08 05:24 50.05123 0.01948 25942 ft 393 kts 168°
2026-05-08 05:24 50.02466 0.02980 26359 ft 395 kts 168°
2026-05-08 05:24 49.99791 0.04019 26761 ft 397 kts 168°
2026-05-08 05:25 49.97106 0.05067 27148 ft 399 kts 168°
2026-05-08 05:25 49.94410 0.06123 27510 ft 401 kts 168°
2026-05-08 05:25 49.91698 0.07189 27869 ft 403 kts 168°
2026-05-08 05:25 49.88972 0.08258 28226 ft 405 kts 168°
2026-05-08 05:26 49.86233 0.09328 28574 ft 407 kts 168°
2026-05-08 05:26 49.83482 0.10400 28920 ft 409 kts 168°
2026-05-08 05:26 49.80719 0.11482 29249 ft 410 kts 168°
2026-05-08 05:26 49.77940 0.12566 29596 ft 412 kts 168°
2026-05-08 05:27 49.76100 0.13285 29805 ft 413 kts 168°
2026-05-08 05:27 49.73304 0.14375 30112 ft 415 kts 168°
2026-05-08 05:27 49.70495 0.15465 30358 ft 418 kts 168°
2026-05-08 05:27 49.67666 0.16566 30590 ft 420 kts 168°
2026-05-08 05:28 49.64829 0.17706 30824 ft 423 kts 167°
2026-05-08 05:28 49.61979 0.18866 31054 ft 425 kts 168°
2026-05-08 05:28 49.59105 0.20024 31284 ft 427 kts 168°
2026-05-08 05:28 49.56223 0.21187 31516 ft 430 kts 168°
2026-05-08 05:29 49.52395 0.22734 31885 ft 430 kts 168°
2026-05-08 05:29 49.50432 0.23523 32055 ft 431 kts 168°
2026-05-08 05:29 49.47523 0.24682 32280 ft 433 kts 168°
2026-05-08 05:29 49.44610 0.25844 32537 ft 433 kts 168°
2026-05-08 05:30 49.41688 0.27012 32806 ft 434 kts 168°
2026-05-08 05:30 49.38765 0.28177 33077 ft 434 kts 168°
2026-05-08 05:30 49.35842 0.29343 33337 ft 434 kts 168°
2026-05-08 05:30 49.32914 0.30517 33589 ft 435 kts 168°
2026-05-08 05:31 49.29986 0.31695 33830 ft 435 kts 168°
2026-05-08 05:31 49.27064 0.32919 34030 ft 437 kts 168°
2026-05-08 05:31 49.24131 0.34168 34213 ft 437 kts 168°
2026-05-08 05:31 49.21199 0.35410 34396 ft 438 kts 168°
2026-05-08 05:32 49.18266 0.36649 34591 ft 438 kts 168°
2026-05-08 05:32 49.15328 0.37891 34776 ft 438 kts 168°
2026-05-08 05:32 49.12391 0.39127 34961 ft 438 kts 168°
2026-05-08 05:32 49.09499 0.40337 35073 ft 439 kts 168°
2026-05-08 05:33 49.06545 0.41568 35058 ft 440 kts 168°
2026-05-08 05:33 49.00632 0.44028 35043 ft 440 kts 168°
2026-05-08 05:34 48.94752 0.46484 35044 ft 438 kts 168°
2026-05-08 05:34 48.88876 0.48929 35044 ft 438 kts 168°
2026-05-08 05:35 48.83007 0.51371 35045 ft 437 kts 168°
2026-05-08 05:35 48.77133 0.53790 35044 ft 437 kts 169°
2026-05-08 05:36 48.71247 0.56087 35044 ft 437 kts 169°
2026-05-08 05:36 48.65361 0.58384 35044 ft 437 kts 169°
2026-05-08 05:37 48.59448 0.60693 35032 ft 439 kts 169°
2026-05-08 05:37 48.53534 0.62999 35040 ft 439 kts 169°
2026-05-08 05:38 48.47628 0.65368 35037 ft 439 kts 168°
2026-05-08 05:38 48.41724 0.67784 35032 ft 441 kts 168°
2026-05-08 05:39 48.35800 0.70184 35031 ft 441 kts 168°
2026-05-08 05:39 48.29872 0.72582 35030 ft 441 kts 168°
2026-05-08 05:40 48.23951 0.74968 35030 ft 441 kts 168°
2026-05-08 05:40 48.18002 0.77309 35019 ft 443 kts 169°
2026-05-08 05:41 48.12039 0.79650 35020 ft 443 kts 169°
2026-05-08 05:41 48.06079 0.81983 35022 ft 443 kts 169°
2026-05-08 05:42 48.00115 0.84317 35009 ft 444 kts 169°
2026-05-08 05:42 47.94150 0.86646 35021 ft 442 kts 169°
2026-05-08 05:43 47.88194 0.88964 35015 ft 442 kts 168°
2026-05-08 05:43 47.82242 0.91279 35013 ft 442 kts 168°
2026-05-08 05:44 47.76275 0.93592 35010 ft 444 kts 169°
2026-05-08 05:44 47.70295 0.95901 35006 ft 444 kts 168°
2026-05-08 05:45 47.64318 0.98208 35016 ft 444 kts 169°
2026-05-08 05:45 47.58371 1.00489 34999 ft 445 kts 169°
2026-05-08 05:46 47.52328 1.02805 34985 ft 446 kts 169°
2026-05-08 05:46 47.46364 1.05090 34985 ft 446 kts 169°
2026-05-08 05:47 47.40295 1.06430 34993 ft 439 kts 184°
2026-05-08 05:47 47.34187 1.06255 34983 ft 439 kts 185°
2026-05-08 05:48 47.28027 1.06080 34983 ft 440 kts 184°
2026-05-08 05:48 47.21954 1.05937 34982 ft 440 kts 184°
2026-05-08 05:49 47.15831 1.05796 34969 ft 441 kts 184°
2026-05-08 05:49 47.09692 1.05651 34979 ft 441 kts 184°
2026-05-08 05:50 47.03554 1.05511 34978 ft 441 kts 184°
2026-05-08 05:50 46.97417 1.05287 34978 ft 441 kts 185°
2026-05-08 05:51 46.91276 1.05004 34977 ft 442 kts 185°
2026-05-08 05:51 46.85130 1.04739 34979 ft 442 kts 185°
2026-05-08 05:52 46.78988 1.04479 34976 ft 442 kts 185°
2026-05-08 05:52 46.72840 1.04217 34975 ft 442 kts 185°
2026-05-08 05:53 46.66703 1.03956 34969 ft 442 kts 185°
2026-05-08 05:53 46.60555 1.03697 34967 ft 442 kts 185°
2026-05-08 05:54 46.54402 1.03439 34957 ft 443 kts 185°
2026-05-08 05:54 46.48237 1.04364 34963 ft 451 kts 170°
2026-05-08 05:55 46.42124 1.06476 34963 ft 451 kts 170°
2026-05-08 05:55 46.36015 1.08545 34954 ft 451 kts 171°
2026-05-08 05:56 46.29881 1.10581 34960 ft 453 kts 171°
2026-05-08 05:56 46.23738 1.12624 34961 ft 453 kts 171°
2026-05-08 05:57 46.17595 1.14657 34962 ft 453 kts 171°
2026-05-08 05:57 46.11437 1.16697 34960 ft 455 kts 171°
2026-05-08 05:58 46.05310 1.18718 34961 ft 455 kts 171°
2026-05-08 05:58 45.99184 1.20738 34967 ft 450 kts 171°
2026-05-08 05:59 45.93059 1.22751 34958 ft 452 kts 171°
2026-05-08 05:59 45.86919 1.24767 34965 ft 453 kts 171°
2026-05-08 06:00 45.80777 1.26778 34958 ft 454 kts 171°
2026-05-08 06:00 45.74622 1.28783 34960 ft 454 kts 171°
2026-05-08 06:01 45.68458 1.30791 34965 ft 454 kts 171°
2026-05-08 06:01 45.62288 1.32790 34963 ft 455 kts 171°
2026-05-08 06:02 45.56119 1.34785 34947 ft 456 kts 171°
2026-05-08 06:02 45.49918 1.36794 34960 ft 457 kts 171°
2026-05-08 06:03 45.43708 1.38797 34959 ft 457 kts 171°
2026-05-08 06:03 45.37497 1.40794 34952 ft 458 kts 171°
2026-05-08 06:04 45.31274 1.42793 34965 ft 459 kts 171°
2026-05-08 06:04 45.25082 1.44780 34964 ft 459 kts 171°
2026-05-08 06:05 45.18844 1.46775 34964 ft 459 kts 171°
2026-05-08 06:05 45.12586 1.48772 34959 ft 462 kts 172°
2026-05-08 06:06 45.06316 1.50768 34971 ft 462 kts 172°
2026-05-08 06:06 45.00046 1.52770 34972 ft 462 kts 172°
2026-05-08 06:07 44.93802 1.54753 34963 ft 459 kts 172°
2026-05-08 06:07 44.87566 1.56727 34965 ft 459 kts 172°
2026-05-08 06:08 44.81336 1.58690 34965 ft 459 kts 172°
2026-05-08 06:08 44.75106 1.60655 34967 ft 459 kts 172°
2026-05-08 06:09 44.68867 1.62613 34971 ft 459 kts 172°
2026-05-08 06:09 44.62632 1.64571 34967 ft 459 kts 172°
2026-05-08 06:10 44.56387 1.66521 34961 ft 461 kts 172°
2026-05-08 06:10 44.50121 1.68476 34974 ft 461 kts 172°
2026-05-08 06:11 44.43860 1.70427 34970 ft 461 kts 172°
2026-05-08 06:11 44.37593 1.72380 34957 ft 462 kts 173°
2026-05-08 06:12 44.31310 1.74326 34963 ft 463 kts 173°
2026-05-08 06:12 44.24990 1.75888 34962 ft 460 kts 176°
2026-05-08 06:13 44.18709 1.77273 34962 ft 460 kts 177°
2026-05-08 06:13 44.13409 1.78446 34962 ft 460 kts 177°
2026-05-08 06:14 44.06050 1.80061 34962 ft 461 kts 177°
2026-05-08 06:14 43.99722 1.81451 34937 ft 461 kts 177°
2026-05-08 06:15 43.94416 1.82500 34953 ft 457 kts 182°
2026-05-08 06:15 43.88086 1.83128 34966 ft 456 kts 183°
2026-05-08 06:16 43.81760 1.83724 34965 ft 456 kts 182°
2026-05-08 06:16 43.75443 1.84337 34962 ft 455 kts 183°
2026-05-08 06:17 43.66012 1.85251 34965 ft 455 kts 183°
2026-05-08 06:17 43.59705 1.85858 34949 ft 454 kts 183°
2026-05-08 06:18 43.53418 1.86465 34962 ft 453 kts 183°
2026-05-08 06:18 43.47136 1.87067 34966 ft 453 kts 183°
2026-05-08 06:19 43.40856 1.87669 34932 ft 452 kts 183°
2026-05-08 06:19 43.34618 1.88267 34958 ft 448 kts 184°
2026-05-08 06:20 43.28386 1.88864 34965 ft 448 kts 184°
2026-05-08 06:20 43.22161 1.89458 34967 ft 448 kts 184°
2026-05-08 06:21 43.15960 1.90053 34959 ft 445 kts 184°
2026-05-08 06:21 43.09783 1.90639 34964 ft 445 kts 184°
2026-05-08 06:22 43.03597 1.91226 34963 ft 446 kts 184°
2026-05-08 06:22 42.97407 1.91814 34944 ft 442 kts 184°
2026-05-08 06:23 42.91285 1.92396 34959 ft 442 kts 184°
2026-05-08 06:23 42.85151 1.92974 34968 ft 441 kts 184°
2026-05-08 06:24 42.79023 1.93551 34965 ft 442 kts 184°
2026-05-08 06:24 42.72886 1.94128 34965 ft 442 kts 184°
2026-05-08 06:25 42.66749 1.94773 34954 ft 446 kts 181°
2026-05-08 06:25 42.60644 1.95992 34968 ft 447 kts 179°
2026-05-08 06:26 42.54510 1.97248 34971 ft 445 kts 180°
2026-05-08 06:26 42.48391 1.98485 34974 ft 445 kts 180°
2026-05-08 06:27 42.42275 1.99718 34985 ft 444 kts 180°
2026-05-08 06:27 42.36158 2.00907 34967 ft 440 kts 182°
2026-05-08 06:28 42.30089 2.01505 34982 ft 436 kts 185°
2026-05-08 06:28 42.24033 2.02038 34994 ft 437 kts 185°
2026-05-08 06:29 42.17969 2.02604 34989 ft 437 kts 184°
2026-05-08 06:29 42.11931 2.03180 35008 ft 435 kts 184°
2026-05-08 06:30 42.05885 2.03751 34999 ft 434 kts 184°
2026-05-08 06:30 41.99841 2.04317 35008 ft 435 kts 185°
2026-05-08 06:31 41.93813 2.04888 34994 ft 432 kts 184°
2026-05-08 06:31 41.87821 2.05452 35004 ft 432 kts 184°
2026-05-08 06:32 41.81834 2.06010 35000 ft 431 kts 184°
2026-05-08 06:32 41.75845 2.06569 35002 ft 431 kts 184°
2026-05-08 06:33 41.69880 2.07125 34996 ft 428 kts 184°
2026-05-08 06:33 41.63940 2.07679 34998 ft 428 kts 184°
2026-05-08 06:34 41.57997 2.08235 34992 ft 428 kts 184°
2026-05-08 06:34 41.52055 2.08788 34989 ft 427 kts 184°
2026-05-08 06:35 41.46142 2.09338 34989 ft 426 kts 184°
2026-05-08 06:35 41.40235 2.09884 34995 ft 426 kts 184°
2026-05-08 06:36 41.34328 2.10431 34985 ft 425 kts 184°
2026-05-08 06:36 41.28435 2.11139 34976 ft 424 kts 181°
2026-05-08 06:37 41.22589 2.12127 34992 ft 424 kts 181°
2026-05-08 06:37 41.16733 2.13114 34995 ft 424 kts 181°
2026-05-08 06:38 41.10876 2.14097 34976 ft 423 kts 181°
2026-05-08 06:38 41.05046 2.15069 34996 ft 422 kts 181°
2026-05-08 06:39 40.99226 2.16041 35001 ft 422 kts 181°
2026-05-08 06:39 40.93409 2.17006 35001 ft 421 kts 181°
2026-05-08 06:40 40.87589 2.17970 34979 ft 421 kts 181°
2026-05-08 06:40 40.81778 2.18934 34997 ft 421 kts 181°
2026-05-08 06:41 40.75969 2.19898 34998 ft 421 kts 181°
2026-05-08 06:41 40.70163 2.20863 34995 ft 421 kts 181°
2026-05-08 06:42 40.64350 2.21822 34998 ft 421 kts 181°
2026-05-08 06:42 40.58546 2.22777 34998 ft 421 kts 181°
2026-05-08 06:43 40.52775 2.23725 34994 ft 420 kts 181°
2026-05-08 06:43 40.46972 2.24681 34993 ft 420 kts 181°
2026-05-08 06:44 40.41172 2.25667 34986 ft 422 kts 179°
2026-05-08 06:44 40.35369 2.27143 34990 ft 425 kts 176°
2026-05-08 06:45 40.29572 2.28667 34990 ft 425 kts 176°
2026-05-08 06:45 40.23761 2.30172 34987 ft 427 kts 177°
2026-05-08 06:46 40.17938 2.31672 34979 ft 426 kts 177°
2026-05-08 06:46 40.12120 2.33175 34986 ft 426 kts 177°
2026-05-08 06:47 40.06302 2.34672 34983 ft 426 kts 177°
2026-05-08 06:47 40.00491 2.36168 34962 ft 426 kts 177°
2026-05-08 06:48 39.94715 2.37649 34979 ft 425 kts 177°
2026-05-08 06:48 39.88912 2.39134 34977 ft 425 kts 177°
2026-05-08 06:49 39.83103 2.40614 34981 ft 425 kts 177°
2026-05-08 06:49 39.77297 2.42093 34956 ft 424 kts 178°
2026-05-08 06:50 39.74435 2.42509 34744 ft 404 kts 188°
2026-05-08 06:50 39.71684 2.42254 34399 ft 392 kts 194°
2026-05-08 06:50 39.69001 2.41820 33956 ft 387 kts 195°
2026-05-08 06:50 39.66335 2.41373 33411 ft 384 kts 195°
2026-05-08 06:51 39.63696 2.40944 32914 ft 382 kts 195°
2026-05-08 06:51 39.61065 2.40531 32456 ft 379 kts 194°
2026-05-08 06:51 39.58457 2.40128 31997 ft 377 kts 194°
2026-05-08 06:51 39.55907 2.39573 31538 ft 367 kts 202°
2026-05-08 06:52 39.53569 2.38407 31085 ft 353 kts 216°
2026-05-08 06:52 39.51749 2.36814 30744 ft 345 kts 221°
2026-05-08 06:52 39.49820 2.34940 30342 ft 341 kts 222°
2026-05-08 06:52 39.47927 2.33110 29952 ft 338 kts 221°
2026-05-08 06:53 39.46038 2.31312 29487 ft 336 kts 221°
2026-05-08 06:53 39.44155 2.29541 29056 ft 333 kts 221°
2026-05-08 06:53 39.42283 2.27793 28656 ft 329 kts 220°
2026-05-08 06:53 39.40441 2.26074 28269 ft 325 kts 220°
2026-05-08 06:54 39.38609 2.24368 27885 ft 321 kts 220°
2026-05-08 06:54 39.36829 2.22713 27265 ft 323 kts 220°
2026-05-08 06:54 39.34989 2.21002 26468 ft 330 kts 220°
2026-05-08 06:54 39.33108 2.19254 25854 ft 333 kts 219°
2026-05-08 06:55 39.31226 2.17511 25492 ft 333 kts 219°
2026-05-08 06:55 39.29345 2.15768 25224 ft 332 kts 219°
2026-05-08 06:55 39.27468 2.14029 24977 ft 332 kts 219°
2026-05-08 06:55 39.25595 2.12296 24749 ft 331 kts 219°
2026-05-08 06:56 39.23720 2.10561 24507 ft 331 kts 219°
2026-05-08 06:56 39.21854 2.08834 24266 ft 330 kts 219°
2026-05-08 06:56 39.19997 2.07121 23952 ft 326 kts 219°
2026-05-08 06:56 39.18158 2.05424 23594 ft 324 kts 219°
2026-05-08 06:57 39.16335 2.03743 23170 ft 322 kts 219°
2026-05-08 06:57 39.14524 2.02072 22758 ft 319 kts 219°
2026-05-08 06:57 39.12725 2.00414 22357 ft 316 kts 219°
2026-05-08 06:57 39.10943 1.98773 21962 ft 314 kts 219°
2026-05-08 06:58 39.09176 1.97147 21548 ft 311 kts 219°
2026-05-08 06:58 39.07420 1.95534 21173 ft 309 kts 219°
2026-05-08 06:58 39.05679 1.93936 20799 ft 307 kts 219°
2026-05-08 06:58 39.03951 1.92349 20434 ft 305 kts 219°
2026-05-08 06:59 39.02230 1.90768 20094 ft 302 kts 219°
2026-05-08 06:59 39.00524 1.89204 19744 ft 301 kts 219°
2026-05-08 06:59 38.98847 1.87613 19396 ft 298 kts 224°
2026-05-08 06:59 38.98015 1.86536 19193 ft 295 kts 233°
2026-05-08 07:00 38.96828 1.84401 18859 ft 293 kts 237°
2026-05-08 07:00 38.95709 1.82220 18534 ft 292 kts 238°
2026-05-08 07:00 38.94229 1.79341 18093 ft 291 kts 238°
2026-05-08 07:00 38.93112 1.77189 17746 ft 290 kts 238°
2026-05-08 07:01 38.92351 1.75728 17505 ft 290 kts 238°
2026-05-08 07:01 38.91260 1.73644 17168 ft 289 kts 238°
2026-05-08 07:01 38.90141 1.71504 16845 ft 288 kts 238°
2026-05-08 07:01 38.89026 1.69376 16524 ft 287 kts 238°
2026-05-08 07:02 38.87913 1.67255 16224 ft 285 kts 238°
2026-05-08 07:02 38.86809 1.65153 15937 ft 283 kts 238°
2026-05-08 07:02 38.85710 1.63063 15651 ft 282 kts 238°
2026-05-08 07:02 38.84616 1.60986 15368 ft 280 kts 238°
2026-05-08 07:03 38.83691 1.58853 15068 ft 276 kts 250°
2026-05-08 07:03 38.83112 1.56488 14784 ft 274 kts 256°
2026-05-08 07:03 38.82611 1.54135 14492 ft 273 kts 256°
2026-05-08 07:03 38.82117 1.51826 14189 ft 272 kts 255°
2026-05-08 07:04 38.81604 1.49467 13620 ft 279 kts 256°
2026-05-08 07:04 38.81075 1.47048 13213 ft 283 kts 255°
2026-05-08 07:04 38.80552 1.44681 12917 ft 283 kts 255°
2026-05-08 07:04 38.79883 1.42277 12636 ft 284 kts 246°
2026-05-08 07:05 38.78997 1.40061 12381 ft 284 kts 244°
2026-05-08 07:05 38.78050 1.37800 12127 ft 284 kts 243°
2026-05-08 07:05 38.77134 1.35608 11887 ft 283 kts 243°
2026-05-08 07:05 38.76204 1.33376 11633 ft 283 kts 243°
2026-05-08 07:06 38.75279 1.31152 11372 ft 282 kts 243°
2026-05-08 07:06 38.74361 1.28943 11045 ft 282 kts 243°
2026-05-08 07:06 38.73452 1.26755 10827 ft 273 kts 243°
2026-05-08 07:06 38.72576 1.24655 10696 ft 262 kts 243°
2026-05-08 07:07 38.71737 1.22642 10571 ft 250 kts 243°
2026-05-08 07:07 38.70922 1.20689 10265 ft 248 kts 243°
2026-05-08 07:07 38.70108 1.18736 9877 ft 249 kts 243°
2026-05-08 07:07 38.69290 1.16780 9495 ft 248 kts 243°
2026-05-08 07:08 38.68478 1.14838 9127 ft 247 kts 243°
2026-05-08 07:08 38.67674 1.12917 8793 ft 245 kts 243°
2026-05-08 07:08 38.66876 1.11009 8469 ft 243 kts 243°
2026-05-08 07:08 38.66077 1.09102 8193 ft 243 kts 242°
2026-05-08 07:09 38.65285 1.07214 7909 ft 243 kts 242°
2026-05-08 07:09 38.64552 1.05273 7616 ft 243 kts 252°
2026-05-08 07:09 38.64198 1.03161 7328 ft 243 kts 262°
2026-05-08 07:09 38.63944 1.01034 7021 ft 243 kts 262°
2026-05-08 07:10 38.63809 0.98902 6760 ft 239 kts 277°
2026-05-08 07:10 38.64377 0.96947 6518 ft 234 kts 310°
2026-05-08 07:10 38.65620 0.95671 6276 ft 229 kts 333°
2026-05-08 07:10 38.67065 0.94845 6027 ft 226 kts 347°
2026-05-08 07:11 38.68614 0.94738 5782 ft 223 kts 11°
2026-05-08 07:11 38.69969 0.95590 5532 ft 221 kts 45°
2026-05-08 07:11 38.70821 0.97195 5317 ft 219 kts 63°
2026-05-08 07:11 38.71494 0.98954 5080 ft 219 kts 63°
2026-05-08 07:12 38.72164 1.00710 4834 ft 219 kts 63°
2026-05-08 07:12 38.72843 1.02439 4554 ft 215 kts 61°
2026-05-08 07:12 38.73542 1.04136 4290 ft 216 kts 61°
2026-05-08 07:12 38.74245 1.05830 4023 ft 215 kts 61°
2026-05-08 07:13 38.74945 1.07517 3759 ft 214 kts 61°
2026-05-08 07:13 38.75636 1.09185 3521 ft 212 kts 61°
2026-05-08 07:13 38.76326 1.10850 3264 ft 212 kts 61°
2026-05-08 07:13 38.77016 1.12515 3029 ft 210 kts 61°
2026-05-08 07:14 38.77669 1.14090 2952 ft 210 kts 61°
2026-05-08 07:14 38.78385 1.15819 2956 ft 209 kts 60°
2026-05-08 07:14 38.79068 1.17467 2976 ft 210 kts 60°
2026-05-08 07:14 38.79750 1.19114 2889 ft 208 kts 60°
2026-05-08 07:15 38.80426 1.20744 2654 ft 207 kts 61°
2026-05-08 07:15 38.81099 1.22370 2385 ft 205 kts 60°
2026-05-08 07:15 38.81761 1.23973 2104 ft 201 kts 60°
2026-05-08 07:15 38.82405 1.25528 1882 ft 193 kts 60°
2026-05-08 07:16 38.83015 1.27001 1618 ft 186 kts 59°
2026-05-08 07:16 38.83613 1.28447 1324 ft 175 kts 60°
2026-05-08 07:16 38.84170 1.29795 1072 ft 167 kts 60°
2026-05-08 07:16 38.84672 1.31009 910 ft 138 kts 60°
2026-05-08 07:17 38.85089 1.32015 699 ft 127 kts 59°
2026-05-08 07:17 38.85511 1.33035 540 ft 129 kts 60°
2026-05-08 07:17 38.85928 1.34045 373 ft 131 kts 60°
2026-05-08 07:17 38.86338 1.35070 224 ft 128 kts 60°
2026-05-08 07:18 38.86763 1.36066 38 ft 126 kts 60°
2026-05-08 07:18 38.87161 1.37015 16 ft 110 kts 60°
2026-05-08 07:18 38.87466 1.37745 15 ft 76 kts 62°
2026-05-08 07:18 38.87637 1.38165 21 ft 33 kts 58°
2026-05-08 07:19 38.87746 1.38233 19 ft 18 kts 329°
2026-05-08 07:19 38.87818 1.38160 14 ft 11 kts 273°
2026-05-08 07:19 38.87784 1.38060 15 ft 13 kts 240°
2026-05-08 07:19 38.87734 1.37946 15 ft 16 kts 242°
2026-05-08 07:20 38.87680 1.37815 14 ft 18 kts 242°
2026-05-08 07:20 38.87620 1.37668 15 ft 20 kts 242°
2026-05-08 07:20 38.87553 1.37506 14 ft 21 kts 240°
2026-05-08 07:20 38.87478 1.37333 15 ft 23 kts 242°
2026-05-08 07:21 38.87402 1.37146 14 ft 24 kts 242°
2026-05-08 07:21 38.87342 1.36998 14 ft 15 kts 243°
2026-05-08 07:21 38.87301 1.36893 14 ft 10 kts 260°
2026-05-08 07:21 38.87353 1.36827 14 ft 12 kts 337°
2026-05-08 07:22 38.87414 1.36771 14 ft 8 kts 286°
2026-05-08 07:22 38.87398 1.36700 16 ft 9 kts 241°
2026-05-08 07:22 38.87371 1.36635 14 ft 0 kts 244°
2026-05-08 07:22 38.87370 1.36630 14 ft 2 kts 258°
2026-05-08 07:23 38.87383 1.36609 14 ft 4 kts 332°
2026-05-08 07:23 38.87412 1.36589 14 ft 5 kts 332°
2026-05-08 07:23 38.87417 1.36585 14 ft 1 kts 332°
2026-05-08 07:23 38.87428 1.36584 14 ft 2 kts
2026-05-08 07:24 38.87430 1.36584 14 ft 1 kts
2026-05-08 07:24 38.87433 1.36585 14 ft 0 kts 11°